Flag for U.S.A. Weather past 2 weeks in Vincennes, Indiana, U.S.A.

Now
55 °F

Clear.


Feels Like: 52 °F
Forecast: 45 / 70 °F
Wind: 12 mph from Northeast

Location: Lawrenceville-Vincennes International Airport


UV Index: 5 (Moderate)

Visibility: 8 mi


Pressure: 30.25 "Hg

Humidity: 59%

Dew point: 41 °F

Location of VincennesLocation

Historic Weather in Vincennes

°F

Vincennes temperature yesterday

Maximum temperature yesterday: 72 °F (at 5:53 PM)
Minimum temperature yesterday: 44 °F (at 6:00 AM)
Average temperature yesterday: 59 °F

Past Weeks' High & Low Weather Summary

 TemperatureHumidityPressure
High79 °F (Apr 12, 4:53 PM)97% (Apr 4, 1:53 AM)30.37 "Hg (Apr 4, 1:53 AM)
Low32 °F (Apr 16, 3:53 AM)26% (Apr 11, 2:53 PM)29.49 "Hg (Apr 7, 2:53 PM)
Average53 °F66%29.99 "Hg
* Reported Apr 4 1:53 AM — Apr 19 1:53 AM, Vincennes, Weather by CustomWeather, © 2014

Note: Actual official high and low records may vary slightly from our data, if they occured in-between our weather recording intervals... More about our weather records

Advertising

Historic Weather Conditions — Data for Previous 24 hours

 ConditionsComfort  
Time TempWeatherWind HumidityBarometerVisibility
1:53 AM
Apr 19
55 °FClear.12 mph59%30.25 "Hg8 mi
12:53 AM57 °FClear.10 mph58%30.24 "Hg10 mi
11:53 PM
Apr 18
57 °FClear.9 mph60%30.24 "Hg10 mi
10:53 PM59 °FClear.8 mph58%30.24 "Hg10 mi
9:53 PM59 °FClear.8 mph58%30.22 "Hg10 mi
8:53 PM64 °FSunny.6 mph50%30.21 "Hg10 mi
7:53 PM69 °FSunny.9 mph36%30.20 "Hg10 mi
6:53 PM71 °FScattered clouds.7 mph32%30.20 "Hg10 mi
5:53 PM72 °FPartly sunny.6 mph33%30.21 "Hg10 mi
4:53 PM70 °FOvercast.7 mph34%30.22 "Hg10 mi
3:53 PM71 °FScattered clouds.No wind35%30.25 "Hg10 mi
2:53 PM71 °FScattered clouds.6 mph34%30.27 "Hg10 mi
1:53 PM70 °FSunny.3 mph35%30.28 "Hg10 mi
12:53 PM68 °FSunny.3 mph39%30.29 "Hg10 mi
11:53 AM66 °FSunny.No wind45%30.30 "Hg9 mi
10:53 AM62 °FSunny.No wind56%30.30 "Hg8 mi
9:53 AM57 °FSunny.No wind67%30.29 "Hg7 mi
8:53 AM51 °FSunny.5 mph77%30.28 "Hg6 mi
7:53 AM47 °FFog.No wind90%30.27 "Hg6 mi
6:53 AM46 °FClear.3 mph89%30.27 "Hg7 mi
6:00 AM44 °FFog.No wind93%30.27 "Hg1 mi
4:53 AM45 °FFog.No wind93%30.26 "Hg6 mi
3:53 AM47 °FClear.No wind77%30.25 "Hg9 mi
Weather by CustomWeather, © 2014

See weather overview